[[{"header":{"parameterUnit":"m.s-1","parameterCategory":2,"la1":30.2991,"la2":30.254,"lo1":-89.0895,"lo2":-89.0444,"dy":0.0017,"dx":0.0017,"nx":28,"ny":28,"refTime":"2024-10-13T03:00:00:Z","depth":"0","parameterNumber":2,"parameterNumberName":"U-component_of_CURRENTS"},"data":[0,0,0,0,0,0,0,0,0,0,0,0,0,0,0,0,0,0,0,0,0,0,0,0,0,0,0,0,0,0,0,0,0,0,0,0,0,0,0,0,0,0,0,0,0,0,0,0,0,0,0,0,0,0,0,0,0,0,0.2761,0.2761,0,0.2761,0.2761,0.2761,0.2768,0.2768,0.2769,0.2769,0.2815,0.2816,0.2817,0,0,0,0,0,0,0,0,0,0,0,0,0,0.2822,0.282,0.276,0.2761,0.2761,0.2761,0.2761,0.2761,0.2768,0.2769,0.2769,0.2769,0.2815,0.2816,0.2817,0,0,0,0,0,0,0,0,0,0,0,0,0,0.2805,0.282,0.276,0.2765,0.2766,0.2761,0.2761,0.2761,0.2768,0.2769,0.2769,0.2769,0.2815,0.2816,0.2818,0.2818,0,0,0.2822,0.2823,0,0,0,0,0,0,0,0,0.2806,0.2802,0.2764,0.2765,0.2766,0.2766,0.28,0.2783,0.2768,0.2766,0.2769,0.277,0.2804,0.2806,0.2803,0.282,0.2822,0.2822,0.2823,0.2824,0.2824,0,0,0,0,0,0,0,0.2807,0.2803,0.276,0.2765,0.2765,0.2787,0.2784,0.2797,0.2782,0.2766,0.2767,0.2769,0.2804,0.2801,0.2804,0.2823,0.2822,0.2823,0.2824,0.2825,0.2951,0.2953,0,0,0,0,0,0,0.2805,0.2803,0.276,0.276,0.2789,0.2785,0.2783,0.2765,0.2781,0.2784,0.2769,0.2769,0.2799,0.2802,0.2806,0.2905,0.2824,0.2825,0.2826,0.2948,0.2951,0.2954,0,0,0,0,0,0,0.2806,0.2801,0.276,0.2784,0.2781,0.2784,0.2764,0.2764,0.2764,0.2783,0.2786,0.2768,0.2799,0.2804,0.2845,0.2903,0.2826,0.2827,0.2945,0.2949,0.2952,0.3041,0,0,0,0,0,0,0.2808,0.28,0.279,0.2783,0.2779,0.278,0.2763,0.2764,0.2765,0.2766,0.2783,0.2788,0.28,0.2843,0.2846,0.2904,0.2828,0.2942,0.2947,0.2951,0.3035,0.3048,0.3058,0,0,0,0,0,0.281,0.2821,0.2789,0.2785,0.2763,0.2781,0.2782,0.2785,0.2765,0.2781,0.2796,0.2787,0.2876,0.2846,0.2849,0.2909,0.294,0.2946,0.2951,0.303,0.3045,0.3058,0,0,0,0,0,0,0.2852,0.2821,0.2788,0.2787,0.2784,0.2783,0.2807,0.2783,0.2801,0.2808,0.2807,0.2814,0.2876,0.2875,0.2841,0.296,0.2911,0.2918,0.297,0.2984,0.2995,0.2974,0.2829,0,0,0,0,0,0.2848,0.2846,0.2816,0.282,0.282,0.2801,0.2805,0.2801,0.2814,0.2821,0.2829,0.2855,0.29,0.2925,0.2955,0.3008,0.3039,0.3053,0.3065,0.3074,0.3062,0.3199,0.3222,0.2972,0.2972,0.2972,0,0,0.2873,0.2851,0.2853,0.2829,0.2828,0.2863,0.2807,0.2829,0.2866,0.2825,0.2885,0.2887,0.292,0.2994,0.3023,0.3003,0.3162,0.3081,0.309,0.3071,0.3208,0.3232,0.3254,0.2976,0.2975,0.2975,0,0,0.2956,0.2894,0.2935,0.293,0.2926,0.2915,0.2918,0.291,0.2916,0.2951,0.2952,0.298,0.3029,0.3074,0.3101,0.3188,0.3212,0.3207,0.3256,0.3392,0.3413,0.3433,0.3501,0.3526,0.3221,0.3221,0.3221,0,0.3005,0.3012,0.2955,0.2996,0.3011,0.2942,0.3002,0.3001,0.3009,0.3039,0.2991,0.3087,0.3074,0.3203,0.3205,0.3215,0.3275,0.3202,0.3408,0.3428,0.3446,0.3512,0.3538,0.3226,0.3225,0.3225,0.3224,0,0.311,0.312,0.315,0.3167,0.3176,0.3213,0.3194,0.3207,0.318,0.3185,0.3266,0.3248,0.3307,0.3311,0.3262,0.34,0.3394,0.3404,0.3373,0.3477,0.3539,0.3565,0.3233,0.3231,0.323,0.3228,0,0,0.3241,0.3231,0.3248,0.3251,0.3261,0.327,0.3344,0.3389,0.3422,0.3433,0.3504,0.3529,0.349,0.3513,0.3485,0.3548,0.3677,0.3508,0.3512,0.3572,0.3952,0.3866,0.3885,0.3746,0.3751,0.3755,0.3941,0,0.3357,0.3432,0.3414,0.349,0.3514,0.3484,0.3538,0.3565,0.3565,0.3607,0.3624,0.3667,0.3588,0.3584,0.3652,0.3656,0.375,0.3622,0.3841,0.3846,0.3758,0.3915,0.3698,0.3839,0.3966,0.397,0.3973,0,0.3474,0.3495,0.3582,0.3587,0.3601,0.3638,0.3679,0.372,0.3779,0.3782,0.3857,0.384,0.3912,0.381,0.3968,0.3899,0.3924,0.3932,0.3942,0.3842,0.381,0.3757,0.3881,0.3726,0.4013,0.401,0.4007,0,0.3533,0.361,0.3662,0.367,0.3683,0.3722,0.3738,0.3785,0.3803,0.3893,0.3908,0.4033,0.4044,0.4152,0.412,0.4075,0.4276,0.4246,0.4224,0.4217,0.4057,0.4027,0.4049,0.4407,0.4407,0.4406,0.4406,0,0.3617,0.3648,0.3679,0.3689,0.3735,0.3749,0.38,0.3829,0.3881,0.3913,0.3985,0.4027,0.4124,0.4218,0.4228,0.4299,0.4409,0.4254,0.4284,0.4079,0.405,0.3923,0.3865,0.4413,0.4412,0.441,0.4409,0,0.3601,0.3647,0.3681,0.3727,0.3742,0.3756,0.3785,0.3808,0.3876,0.3921,0.3952,0.4057,0.4191,0.4289,0.4431,0.4412,0.4364,0.4506,0.4211,0.4202,0.3995,0.3949,0.3905,0.38,0.4527,0.4527,0.4526,0,0.3565,0.3593,0.3666,0.3674,0.3678,0.371,0.3721,0.379,0.3809,0.3923,0.3938,0.409,0.4162,0.4362,0.4388,0.4497,0.4358,0.4336,0.4201,0.3975,0.395,0.3805,0.3708,0.4029,0.4025,0.4021,0.4018,0,0.3474,0.3522,0.3538,0.3581,0.3603,0.3621,0.3649,0.3666,0.3748,0.3796,0.3864,0.3945,0.4126,0.4128,0.4266,0.4291,0.4083,0.426,0.4138,0.3653,0.339,0.3303,0.3874,0.3985,0.3988,0.399,0.3992,0.3993,0.3373,0.3376,0.3431,0.3443,0.3478,0.3491,0.3472,0.3519,0.3544,0.358,0.3736,0.3803,0.3866,0.402,0.4028,0.3842,0.3886,0.3684,0.3679,0.3575,0.3366,0.3826,0.39,0.3902,0.3905,0.3907,0.3909,0,0.322,0.3253,0.3276,0.3308,0.3298,0.3364,0.3376,0.3333,0.3319,0.344,0.3497,0.3522,0.3511,0.3547,0.341,0.3258,0.3126,0.3153,0.2888,0.2851,0.336,0.3224,0.3017,0.3017,0.3018,0.3018,0.3018,0.3018,0.3143,0.3128,0.316,0.3112,0.3131,0.3073,0.3057,0.3024,0.3064,0.3034,0.3046,0.3141,0.315,0.305,0.283,0.2768,0.2559,0.243,0.2486,0.2805,0.2852,0.2897,0.2753,0.2451,0.2451,0.1807,0.1802,0.1798]},{"header":{"parameterUnit":"m.s-1","parameterCategory":2,"la1":30.2991,"la2":30.254,"lo1":-89.0895,"lo2":-89.0444,"dy":0.0017,"dx":0.0017,"nx":28,"ny":28,"refTime":"2024-10-13T03:00:00:Z","depth":"0","parameterNumber":3,"parameterNumberName":"V-component_of_CURRENTS"},"data":[0,0,0,0,0,0,0,0,0,0,0,0,0,0,0,0,0,0,0,0,0,0,0,0,0,0,0,0,0,0,0,0,0,0,0,0,0,0,0,0,0,0,0,0,0,0,0,0,0,0,0,0,0,0,0,0,0,0,0.0018,0.0017,0,-0.0034,-0.0035,-0.0035,-0.009,-0.0091,-0.0092,-0.0093,-0.0184,-0.0185,-0.0187,0,0,0,0,0,0,0,0,0,0,0,0,0,0.0061,0.0061,0.0018,0.0017,0.0016,-0.0034,-0.0035,-0.0036,-0.009,-0.0091,-0.0092,-0.0093,-0.0183,-0.0185,-0.0187,0,0,0,0,0,0,0,0,0,0,0,0,0,0.003,0.0061,0.0018,-0.0018,-0.0022,-0.0034,-0.0035,-0.0036,-0.009,-0.0091,-0.0093,-0.0094,-0.0183,-0.0185,-0.0187,-0.0176,0,0,-0.0195,-0.0196,0,0,0,0,0,0,0,0,0.0032,0.0029,-0.0012,-0.0016,-0.002,-0.0058,-0.0053,-0.0085,-0.009,-0.0063,-0.0093,-0.0094,-0.0145,-0.0151,-0.0155,-0.018,-0.0184,-0.0195,-0.0196,-0.0197,-0.0198,0,0,0,0,0,0,0,0.0034,0.0031,-0.0002,-0.0013,-0.0018,-0.0035,-0.004,-0.0059,-0.0096,-0.0065,-0.007,-0.0077,-0.0148,-0.0153,-0.0158,-0.0185,-0.0195,-0.0197,-0.0198,-0.0199,-0.0259,-0.0259,0,0,0,0,0,0,0.004,0.0033,0.0,-0.0003,0.0002,-0.0034,-0.0041,-0.0044,-0.0095,-0.0104,-0.0076,-0.0079,-0.0148,-0.0155,-0.0161,-0.0165,-0.0197,-0.0199,-0.0201,-0.0258,-0.0259,-0.0259,0,0,0,0,0,0,0.0042,0.0038,0.0002,0.0012,0.0006,-0.0034,-0.0037,-0.0044,-0.0053,-0.0103,-0.0113,-0.0078,-0.0149,-0.0158,-0.0185,-0.0168,-0.0201,-0.0203,-0.0258,-0.0259,-0.0259,-0.0162,0,0,0,0,0,0,0.0043,0.0039,0.0046,0.0013,0.0006,0.0003,-0.0036,-0.0044,-0.0056,-0.0061,-0.0108,-0.0118,-0.0151,-0.0182,-0.0188,-0.0172,-0.0205,-0.0258,-0.0258,-0.0259,-0.0165,-0.0159,-0.0154,0,0,0,0,0,0.0045,0.0064,0.0047,0.0043,0.0014,0.0004,-0.0,-0.0033,-0.0055,-0.0048,-0.0091,-0.0116,-0.0188,-0.0183,-0.019,-0.0175,-0.0258,-0.0258,-0.0259,-0.0168,-0.0161,-0.0154,0,0,0,0,0,0,0.0092,0.0059,0.0039,0.0048,0.0029,-0.0006,-0.0,-0.0026,-0.0052,-0.006,-0.0112,-0.0124,-0.0147,-0.0176,-0.0169,-0.0198,-0.0229,-0.0231,-0.0158,-0.0151,-0.0146,-0.0095,-0.0207,0,0,0,0,0,0.0104,0.0106,0.0072,0.008,0.0073,0.0037,0.003,0.0007,-0.0024,-0.0037,-0.0072,-0.0114,-0.0151,-0.0163,-0.0201,-0.0202,-0.0185,-0.0203,-0.0197,-0.0192,-0.0158,-0.0114,-0.0099,-0.026,-0.026,-0.026,0,0,0.0122,0.0107,0.0106,0.0089,0.0072,0.0074,0.003,0.0026,0.0029,-0.0041,-0.0046,-0.0096,-0.0152,-0.0166,-0.0177,-0.0185,-0.014,-0.0192,-0.0187,-0.0156,-0.0112,-0.0095,-0.0081,-0.026,-0.026,-0.026,0,0,0.0155,0.0148,0.0153,0.0148,0.0126,0.0109,0.011,0.0078,0.0067,0.0051,-0.0005,-0.0031,-0.0088,-0.0109,-0.0133,-0.0114,-0.0118,-0.0147,-0.0062,-0.0019,-0.0004,0.001,0.0054,0.0071,-0.0133,-0.0133,-0.0133,0,0.0164,0.0181,0.0156,0.0165,0.017,0.0128,0.0144,0.0132,0.0095,0.0101,0.0059,0.0002,-0.0051,-0.0048,-0.0056,-0.0094,-0.0074,-0.0079,-0.0005,0.0009,0.0021,0.0062,0.008,-0.0129,-0.0129,-0.013,-0.013,0,0.0196,0.0217,0.0228,0.0223,0.0229,0.0241,0.0221,0.0225,0.0199,0.0184,0.0178,0.0115,0.0092,0.0055,0.0001,0.0051,0.0035,-0.0006,-0.0008,0.0044,0.0083,0.0099,-0.0122,-0.0124,-0.0125,-0.0126,0,0,0.0171,0.0234,0.0233,0.0268,0.0266,0.0278,0.0297,0.0309,0.0342,0.03,0.0347,0.0267,0.0247,0.0219,0.0158,0.0183,0.0267,0.013,0.013,0.0201,0.0373,0.0342,0.0356,0.0241,0.0245,0.0247,0.0367,0,0.0191,0.0251,0.0267,0.0329,0.0365,0.0363,0.0394,0.0405,0.0403,0.0441,0.0399,0.0405,0.0306,0.0304,0.0315,0.0278,0.0314,0.0239,0.0289,0.0291,0.028,0.0376,0.0339,0.0441,0.0383,0.0385,0.0387,0,0.0197,0.0249,0.0322,0.0418,0.0431,0.046,0.0526,0.0549,0.0587,0.0592,0.0605,0.0573,0.0598,0.0504,0.0526,0.0483,0.0447,0.0415,0.0419,0.0376,0.0292,0.0375,0.0473,0.0316,0.0413,0.0411,0.0409,0,0.0204,0.0285,0.036,0.0385,0.0473,0.0513,0.055,0.0594,0.0637,0.0703,0.0749,0.0761,0.0787,0.0756,0.068,0.0618,0.0714,0.0621,0.0567,0.0564,0.0539,0.0528,0.0518,0.0664,0.0663,0.0663,0.0663,0,0.0227,0.0289,0.0377,0.0422,0.051,0.0557,0.0645,0.0684,0.0762,0.0847,0.0836,0.0915,0.0853,0.0878,0.0783,0.0753,0.0807,0.0628,0.0611,0.0566,0.0557,0.042,0.0322,0.0668,0.0667,0.0666,0.0665,0,0.0242,0.0297,0.0388,0.049,0.0522,0.0584,0.0692,0.0762,0.0836,0.0956,0.0991,0.1064,0.1118,0.1051,0.103,0.0903,0.0779,0.0825,0.0778,0.0752,0.0515,0.0424,0.0446,0.0388,0.0798,0.0798,0.0798,0,0.0271,0.0319,0.0421,0.047,0.0522,0.0616,0.0683,0.0777,0.0864,0.1048,0.1123,0.1226,0.1316,0.1291,0.1122,0.1019,0.084,0.0857,0.0718,0.0545,0.0431,0.0371,0.0315,0.0724,0.0724,0.0723,0.0723,0,0.0316,0.0337,0.0405,0.0501,0.0578,0.0677,0.0792,0.0874,0.1016,0.1151,0.1352,0.1455,0.1451,0.1371,0.1207,0.1075,0.0733,0.0843,0.0689,0.0414,0.0329,0.0249,0.0596,0.072,0.072,0.072,0.0721,0.0721,0.033,0.0371,0.0441,0.0536,0.0626,0.0752,0.0852,0.1,0.1177,0.1427,0.1509,0.1725,0.1543,0.1343,0.1142,0.0717,0.0736,0.0541,0.0463,0.0433,0.0323,0.0665,0.0737,0.0738,0.0738,0.0738,0.0739,0,0.0351,0.0397,0.048,0.0596,0.0706,0.0754,0.0938,0.1067,0.13,0.1557,0.176,0.1826,0.1552,0.1236,0.0684,0.0381,0.0263,0.0209,0.01,0.0073,0.0406,0.0341,0.0301,0.0301,0.0301,0.0301,0.0302,0.0302,0.0361,0.0427,0.0474,0.0645,0.0739,0.0903,0.1019,0.1226,0.1442,0.176,0.1948,0.2086,0.1811,0.0822,0.0153,0.0001,-0.021,-0.0239,-0.0311,-0.0141,-0.0117,-0.0094,-0.0177,-0.0326,-0.0327,-0.0625,-0.0628,-0.0631]}],[{"header":{"parameterUnit":"m.s-1","parameterCategory":2,"la1":30.2991,"la2":30.254,"lo1":-89.0895,"lo2":-89.0444,"dy":0.0017,"dx":0.0017,"nx":28,"ny":28,"refTime":"2024-10-13T03:00:00:Z","depth":"2","parameterNumber":2,"parameterNumberName":"U-component_of_CURRENTS"},"data":[0,0,0,0,0,0,0,0,0,0,0,0,0,0,0,0,0,0,0,0,0,0,0,0,0,0,0,0,0,0,0,0,0,0,0,0,0,0,0,0,0,0,0,0,0,0,0,0,0,0,0,0,0,0,0,0,0,0,0.1933,0.1934,0,0.1978,0.1978,0.1978,0.1993,0.1994,0.1994,0.1994,0.1988,0.1987,0.1987,0,0,0,0,0,0,0,0,0,0,0,0,0,0.1919,0.1918,0.1933,0.1934,0.1936,0.1978,0.1978,0.1978,0.1993,0.1994,0.1994,0.1994,0.1988,0.1987,0.1987,0,0,0,0,0,0,0,0,0,0,0,0,0,0.1935,0.1918,0.1933,0.1953,0.1955,0.1978,0.1978,0.1978,0.1993,0.1994,0.1994,0.1995,0.1988,0.1987,0.1987,0.1971,0,0,0.1984,0.1984,0,0,0,0,0,0,0,0,0.1934,0.1934,0.1949,0.1951,0.1955,0.1986,0.1971,0.1975,0.1993,0.1972,0.1994,0.1995,0.1986,0.1986,0.1985,0.197,0.197,0.1984,0.1984,0.1983,0.1983,0,0,0,0,0,0,0,0.1932,0.1933,0.1945,0.195,0.1954,0.198,0.1981,0.1972,0.197,0.1974,0.1977,0.1991,0.1987,0.1985,0.1985,0.197,0.1984,0.1984,0.1983,0.1983,0.2009,0.201,0,0,0,0,0,0,0.1935,0.1931,0.1944,0.1947,0.1952,0.198,0.1981,0.197,0.1971,0.1974,0.1991,0.1992,0.1986,0.1985,0.1984,0.2057,0.1983,0.1983,0.1982,0.2008,0.2009,0.201,0,0,0,0,0,0,0.1934,0.1935,0.1942,0.1947,0.195,0.198,0.1967,0.1971,0.1981,0.1986,0.1986,0.1999,0.1987,0.1985,0.2006,0.2054,0.1982,0.1982,0.2006,0.2008,0.201,0.2144,0,0,0,0,0,0,0.1933,0.1933,0.1936,0.1946,0.1951,0.1954,0.1968,0.1972,0.1992,0.1994,0.1993,0.1992,0.1987,0.2008,0.2005,0.2051,0.1981,0.2005,0.2007,0.2009,0.2138,0.215,0.2161,0,0,0,0,0,0.1932,0.1932,0.1934,0.1937,0.1948,0.1954,0.1957,0.1978,0.1992,0.1989,0.2013,0.1993,0.2019,0.2008,0.2005,0.2052,0.2004,0.2006,0.2009,0.2133,0.2148,0.216,0,0,0,0,0,0,0.1929,0.1934,0.1937,0.1939,0.1946,0.1959,0.1976,0.1982,0.1997,0.2017,0.2008,0.2009,0.2036,0.2019,0.2007,0.2062,0.2007,0.2009,0.2103,0.2116,0.2127,0.2194,0.198,0,0,0,0,0,0.1929,0.1921,0.1934,0.1932,0.1945,0.196,0.1971,0.1987,0.2003,0.201,0.2011,0.2024,0.2041,0.206,0.205,0.2089,0.2105,0.2113,0.2125,0.2135,0.2185,0.2301,0.233,0.2019,0.2019,0.2019,0,0,0.193,0.193,0.1929,0.1931,0.1946,0.1974,0.1966,0.1994,0.2036,0.2007,0.2058,0.2047,0.2051,0.2096,0.2108,0.2097,0.2209,0.2138,0.2147,0.2193,0.2308,0.2339,0.2367,0.2021,0.202,0.202,0,0,0.1938,0.1928,0.194,0.1952,0.1983,0.1992,0.2001,0.2023,0.2055,0.2109,0.2096,0.2141,0.2148,0.2183,0.2201,0.2268,0.2247,0.2234,0.2376,0.2488,0.2516,0.2542,0.2518,0.2541,0.2264,0.2265,0.2265,0,0.1961,0.196,0.1945,0.1972,0.2005,0.2002,0.2048,0.2075,0.2102,0.2154,0.2147,0.2224,0.2216,0.2311,0.2344,0.2303,0.2315,0.2329,0.251,0.2536,0.256,0.253,0.2554,0.2271,0.2271,0.227,0.2269,0,0.1981,0.1999,0.2011,0.2041,0.2062,0.2098,0.214,0.2172,0.222,0.2266,0.2366,0.2384,0.2442,0.2437,0.2429,0.2573,0.2501,0.2496,0.2491,0.2601,0.2559,0.2581,0.2281,0.2279,0.2277,0.2275,0,0,0.2035,0.2031,0.2048,0.2083,0.2115,0.2145,0.2215,0.2298,0.2378,0.2441,0.2567,0.2631,0.2648,0.267,0.2648,0.2768,0.2913,0.2726,0.2728,0.2726,0.3078,0.2942,0.2951,0.2957,0.2963,0.2968,0.295,0,0.2086,0.2131,0.2122,0.2202,0.2246,0.227,0.2334,0.2411,0.2484,0.2588,0.2682,0.2767,0.2731,0.2775,0.2892,0.2891,0.2992,0.2913,0.2952,0.2951,0.2842,0.2983,0.2732,0.2693,0.2972,0.2975,0.2978,0,0.2152,0.2172,0.2244,0.2305,0.2334,0.2379,0.2504,0.2561,0.2691,0.2761,0.2881,0.2915,0.3048,0.3031,0.3161,0.311,0.313,0.3148,0.3147,0.3011,0.2863,0.2642,0.2722,0.3015,0.3012,0.3009,0.3007,0,0.2226,0.2282,0.2341,0.2364,0.242,0.2487,0.2527,0.2634,0.2704,0.2873,0.2946,0.3088,0.3163,0.3259,0.3267,0.3239,0.341,0.3354,0.3244,0.3226,0.3019,0.2975,0.3525,0.3525,0.3525,0.3525,0.3525,0,0.2294,0.235,0.2386,0.2427,0.2522,0.2557,0.2674,0.2736,0.2846,0.2931,0.3034,0.3119,0.3252,0.3329,0.3336,0.3338,0.3456,0.331,0.3266,0.3041,0.3001,0.3298,0.3272,0.3524,0.3524,0.3524,0.3524,0,0.2347,0.2365,0.2446,0.2525,0.2555,0.263,0.2709,0.2778,0.2882,0.2994,0.3053,0.3183,0.3244,0.3307,0.3431,0.3393,0.3425,0.3406,0.3063,0.2983,0.3126,0.3106,0.3264,0.3261,0.3257,0.3255,0.3252,0,0.2371,0.2421,0.251,0.2541,0.2573,0.2666,0.2708,0.28,0.2851,0.3001,0.3047,0.3163,0.3183,0.3257,0.3233,0.3203,0.3335,0.2995,0.2936,0.3185,0.3126,0.3111,0.3096,0.2654,0.2647,0.2641,0.2637,0,0.2419,0.2453,0.2484,0.2544,0.26,0.2652,0.2717,0.2738,0.2836,0.289,0.2923,0.2956,0.3017,0.2887,0.2907,0.2869,0.2972,0.2875,0.3307,0.2764,0.2612,0.2552,0.2558,0.2586,0.2591,0.2595,0.2598,0.26,0.2435,0.2447,0.2475,0.2514,0.2573,0.2581,0.2576,0.2592,0.2597,0.2583,0.2693,0.263,0.2681,0.2521,0.2461,0.2436,0.2626,0.2552,0.257,0.2593,0.2533,0.2385,0.2297,0.23,0.2303,0.2305,0.2307,0,0.2389,0.2387,0.2431,0.2438,0.2436,0.2525,0.2533,0.2433,0.2334,0.2342,0.2293,0.2051,0.1997,0.207,0.1941,0.1956,0.1938,0.1902,0.1874,0.1925,0.1971,0.1879,0.1469,0.1466,0.1464,0.1462,0,0,0.2352,0.2318,0.2313,0.2271,0.2307,0.2255,0.2233,0.2096,0.2031,0.1796,0.1741,0.183,0.1969,0.1654,0.1639,0.1545,0.1715,0.1479,0.2152,0.2167,0.2209,0.2348,0.2265,0,0,0,0,0]},{"header":{"parameterUnit":"m.s-1","parameterCategory":2,"la1":30.2991,"la2":30.254,"lo1":-89.0895,"lo2":-89.0444,"dy":0.0017,"dx":0.0017,"nx":28,"ny":28,"refTime":"2024-10-13T03:00:00:Z","depth":"2","parameterNumber":3,"parameterNumberName":"V-component_of_CURRENTS"},"data":[0,0,0,0,0,0,0,0,0,0,0,0,0,0,0,0,0,0,0,0,0,0,0,0,0,0,0,0,0,0,0,0,0,0,0,0,0,0,0,0,0,0,0,0,0,0,0,0,0,0,0,0,0,0,0,0,0,0,0.0004,0.0003,0,-0.0029,-0.0029,-0.003,-0.0056,-0.0056,-0.0057,-0.0057,-0.0103,-0.0104,-0.0105,0,0,0,0,0,0,0,0,0,0,0,0,0,0.0043,0.0043,0.0004,0.0003,0.0003,-0.0029,-0.0029,-0.003,-0.0056,-0.0056,-0.0057,-0.0057,-0.0103,-0.0104,-0.0105,0,0,0,0,0,0,0,0,0,0,0,0,0,0.0021,0.0042,0.0004,-0.0015,-0.0017,-0.0029,-0.0029,-0.003,-0.0056,-0.0056,-0.0057,-0.0057,-0.0102,-0.0104,-0.0105,-0.0102,0,0,-0.0109,-0.011,0,0,0,0,0,0,0,0,0.0022,0.0019,-0.0012,-0.0014,-0.0016,-0.004,-0.0032,-0.0055,-0.0056,-0.004,-0.0057,-0.0057,-0.0083,-0.0086,-0.009,-0.0105,-0.0107,-0.0109,-0.011,-0.0111,-0.0111,0,0,0,0,0,0,0,0.0024,0.0021,-0.0008,-0.0012,-0.0015,-0.0022,-0.0026,-0.0037,-0.0058,-0.0041,-0.0043,-0.0049,-0.0085,-0.0088,-0.0091,-0.0107,-0.0109,-0.011,-0.0111,-0.0112,-0.0133,-0.0133,0,0,0,0,0,0,0.0026,0.0022,-0.0007,-0.0009,0.0001,-0.0022,-0.0026,-0.0031,-0.0057,-0.0062,-0.0048,-0.005,-0.0086,-0.0089,-0.0093,-0.0096,-0.0111,-0.0112,-0.0113,-0.0134,-0.0133,-0.0133,0,0,0,0,0,0,0.0027,0.0024,-0.0006,0.0005,0.0,-0.0022,-0.0027,-0.0031,-0.0036,-0.0063,-0.0067,-0.0049,-0.0086,-0.0091,-0.0111,-0.0098,-0.0112,-0.0114,-0.0134,-0.0134,-0.0133,-0.01,0,0,0,0,0,0,0.0028,0.0025,0.0022,0.0005,-0.0,-0.0007,-0.0027,-0.0031,-0.0039,-0.0041,-0.0065,-0.007,-0.0087,-0.0109,-0.0112,-0.01,-0.0115,-0.0134,-0.0134,-0.0133,-0.0102,-0.0099,-0.0097,0,0,0,0,0,0.003,0.0028,0.0022,0.0019,-0.0003,-0.0006,-0.0009,-0.0027,-0.0038,-0.0034,-0.0061,-0.0069,-0.0108,-0.011,-0.0114,-0.0102,-0.0134,-0.0134,-0.0133,-0.0103,-0.01,-0.0097,0,0,0,0,0,0,0.0036,0.0025,0.0018,0.001,0.0006,-0.0011,-0.0015,-0.0023,-0.004,-0.0048,-0.0072,-0.0078,-0.0085,-0.0102,-0.0103,-0.0107,-0.012,-0.012,-0.0095,-0.0092,-0.009,-0.0076,-0.0116,0,0,0,0,0,0.0039,0.0039,0.0026,0.0022,0.0019,0.0004,-0.0001,-0.001,-0.0028,-0.0035,-0.0053,-0.0073,-0.0085,-0.0096,-0.0107,-0.0116,-0.0117,-0.0109,-0.0106,-0.0104,-0.0096,-0.0082,-0.0077,-0.0132,-0.0132,-0.0132,0,0,0.0038,0.0033,0.0032,0.0024,0.0016,0.0025,0.0,-0.0005,0.0002,-0.0038,-0.004,-0.0062,-0.0084,-0.0091,-0.0096,-0.0106,-0.0092,-0.0104,-0.0101,-0.0095,-0.0081,-0.0076,-0.0071,-0.0131,-0.0131,-0.0131,0,0,0.0045,0.0035,0.004,0.0043,0.0036,0.0034,0.0036,0.0022,0.0015,-0.0,-0.0017,-0.0036,-0.0063,-0.0069,-0.0079,-0.0069,-0.0074,-0.007,-0.0052,-0.0039,-0.0034,-0.003,-0.0034,-0.003,-0.0075,-0.0075,-0.0075,0,0.0038,0.0054,0.0041,0.0051,0.006,0.0043,0.006,0.0053,0.0035,0.0038,0.0,-0.0023,-0.0052,-0.004,-0.0049,-0.0061,-0.006,-0.0062,-0.0034,-0.003,-0.0026,-0.0031,-0.0027,-0.0073,-0.0073,-0.0073,-0.0073,0,0.0057,0.0071,0.0074,0.0089,0.0096,0.0108,0.0103,0.011,0.0089,0.0078,0.0071,0.0023,0.0011,-0.0002,-0.0035,-0.0011,-0.0021,-0.0027,-0.0039,-0.0018,-0.0026,-0.0022,-0.0071,-0.0071,-0.0072,-0.0072,0,0,0.0021,0.008,0.0076,0.0108,0.0122,0.0132,0.0153,0.0171,0.0194,0.0148,0.0168,0.0114,0.0086,0.0074,0.0044,0.0035,0.0042,0.0009,0.0009,0.0011,0.0064,0.0015,0.0014,0.0046,0.0047,0.0048,0.0044,0,0.0036,0.0087,0.0106,0.0156,0.0184,0.0198,0.0224,0.0235,0.0229,0.0243,0.0194,0.019,0.0118,0.0108,0.0089,0.0066,0.0054,0.0043,0.0039,0.0039,-0.0002,0.0018,0.0025,0.0019,0.0047,0.0048,0.0048,0,0.0032,0.0079,0.0134,0.0215,0.0225,0.0247,0.0303,0.0323,0.0342,0.0335,0.032,0.0289,0.0266,0.02,0.0161,0.0159,0.011,0.0079,0.0078,0.0027,-0.0003,0.0004,0.0024,0.0054,0.0053,0.0053,0.0053,0,0.0016,0.0091,0.0147,0.0169,0.0248,0.0272,0.0307,0.0339,0.0368,0.0394,0.0414,0.0384,0.0367,0.0314,0.0218,0.02,0.0178,0.0151,0.0063,0.0059,0.0061,0.0054,0.013,0.013,0.013,0.013,0.013,0,0.0026,0.007,0.0143,0.0171,0.0235,0.0276,0.0331,0.0369,0.0416,0.0478,0.045,0.0495,0.0395,0.0363,0.027,0.0175,0.0218,0.0073,0.006,0.0069,0.0064,0.0091,0.0086,0.013,0.013,0.013,0.013,0,0.0009,0.006,0.0118,0.0199,0.0225,0.0257,0.0341,0.0393,0.0439,0.0524,0.0537,0.0569,0.0544,0.0434,0.0357,0.0242,0.016,0.0115,0.0115,0.0102,0.0017,0.0014,0.0023,0.0022,0.002,0.0019,0.0018,0,0.0024,0.0046,0.0114,0.0151,0.0189,0.025,0.0306,0.0379,0.0457,0.0588,0.0649,0.065,0.0698,0.0548,0.0351,0.0186,0.0163,0.006,0.0014,0.0022,0.0009,0.0009,0.0008,0.0029,0.0029,0.0028,0.0027,0,0.0042,0.0038,0.009,0.0156,0.021,0.0293,0.0391,0.047,0.0596,0.0711,0.0886,0.0937,0.0777,0.0631,0.0353,0.0227,0.0082,0.0038,0.0082,0.0043,0.0024,0.0012,0.0012,0.0022,0.0022,0.0023,0.0023,0.0023,0.0044,0.0063,0.0111,0.0181,0.0248,0.0374,0.0472,0.063,0.0809,0.1025,0.104,0.1115,0.0883,0.0546,0.0326,0.0053,0.0054,-0.0046,-0.0041,-0.0037,-0.0048,-0.0069,-0.0092,-0.0092,-0.0092,-0.0092,-0.0092,0,0.0077,0.0099,0.0153,0.0257,0.0357,0.0369,0.0565,0.0724,0.0997,0.1123,0.1262,0.1064,0.0875,0.0602,0.02,-0.0031,-0.0042,-0.0109,-0.0062,-0.0056,-0.0051,-0.006,-0.0108,-0.0109,-0.0109,-0.0109,0,0,0.0102,0.0153,0.0181,0.0346,0.0416,0.0591,0.0711,0.0955,0.1109,0.1302,0.1308,0.1255,0.0933,0.0643,0.0333,0.0121,0.0085,0.0068,0.0099,0.0196,0.0204,-0.0005,-0.0014,0,0,0,0,0]}],[{"header":{"parameterUnit":"m.s-1","parameterCategory":2,"la1":30.2991,"la2":30.254,"lo1":-89.0895,"lo2":-89.0444,"dy":0.0017,"dx":0.0017,"nx":28,"ny":28,"refTime":"2024-10-13T03:00:00:Z","depth":"4","parameterNumber":2,"parameterNumberName":"U-component_of_CURRENTS"},"data":[0,0,0,0,0,0,0,0,0,0,0,0,0,0,0,0,0,0,0,0,0,0,0,0,0,0,0,0,0,0,0,0,0,0,0,0,0,0,0,0,0,0,0,0,0,0,0,0,0,0,0,0,0,0,0,0,0,0,0.091,0.0911,0,0.0974,0.0974,0.0975,0.1015,0.1015,0.1016,0.1016,0.1052,0.1052,0.1053,0,0,0,0,0,0,0,0,0,0,0,0,0,0.0834,0.0835,0.091,0.0911,0.0912,0.0973,0.0974,0.0975,0.1015,0.1015,0.1016,0.1016,0.1051,0.1052,0.1053,0,0,0,0,0,0,0,0,0,0,0,0,0,0.0878,0.0835,0.091,0.094,0.0943,0.0973,0.0974,0.0975,0.1015,0.1015,0.1016,0.1016,0.1051,0.1052,0.1053,0.105,0,0,0.1056,0.1057,0,0,0,0,0,0,0,0,0.0876,0.0881,0.0935,0.0938,0.0942,0.0988,0.0961,0.0999,0.1015,0.0987,0.1016,0.1016,0.1028,0.1031,0.1041,0.1052,0.1054,0.1056,0.1057,0.1057,0.1058,0,0,0,0,0,0,0,0.0872,0.0878,0.0935,0.0936,0.094,0.0953,0.096,0.0968,0.1003,0.0989,0.0993,0.1001,0.103,0.104,0.1042,0.1054,0.1056,0.1057,0.1058,0.1058,0.1096,0.1096,0,0,0,0,0,0,0.0865,0.0875,0.0933,0.0937,0.091,0.0954,0.0962,0.0972,0.1004,0.1009,0.1,0.1002,0.1038,0.1041,0.1043,0.1075,0.1057,0.1058,0.1059,0.1096,0.1096,0.1097,0,0,0,0,0,0,0.0863,0.087,0.093,0.0908,0.0917,0.0955,0.0966,0.0973,0.1006,0.1012,0.1017,0.1029,0.1038,0.1042,0.1062,0.1076,0.1059,0.106,0.1095,0.1096,0.1096,0.1117,0,0,0,0,0,0,0.0861,0.0869,0.0883,0.0907,0.0918,0.0952,0.0966,0.0974,0.1009,0.1013,0.1038,0.1041,0.1039,0.106,0.1063,0.1077,0.106,0.1095,0.1095,0.1096,0.1116,0.1118,0.1121,0,0,0,0,0,0.0858,0.0868,0.0883,0.089,0.0932,0.0953,0.0959,0.0988,0.101,0.1021,0.104,0.1041,0.1067,0.1062,0.1064,0.1079,0.1094,0.1095,0.1096,0.1115,0.1118,0.1121,0,0,0,0,0,0,0.0848,0.0874,0.089,0.0911,0.0934,0.096,0.0975,0.1001,0.1027,0.1036,0.1047,0.1051,0.1077,0.1072,0.1066,0.1091,0.1081,0.1082,0.1094,0.1097,0.1099,0.1096,0.1061,0,0,0,0,0,0.0851,0.0861,0.0891,0.0908,0.092,0.0955,0.0973,0.0993,0.1016,0.103,0.1053,0.1068,0.1079,0.1084,0.1095,0.1106,0.1139,0.1117,0.1119,0.1121,0.112,0.1203,0.1214,0.11,0.1099,0.1099,0,0,0.0849,0.0868,0.0874,0.0906,0.0927,0.094,0.0967,0.0995,0.1009,0.1027,0.1062,0.1084,0.1086,0.1101,0.1111,0.1101,0.1169,0.1122,0.1124,0.1122,0.1206,0.1217,0.1227,0.11,0.11,0.11,0,0,0.0836,0.0871,0.0869,0.0892,0.0926,0.0944,0.0958,0.0999,0.1022,0.1048,0.1072,0.1106,0.1116,0.1131,0.1133,0.1154,0.1186,0.1156,0.1158,0.124,0.125,0.126,0.1313,0.1328,0.1149,0.1149,0.1149,0,0.084,0.0841,0.0873,0.0882,0.0906,0.0947,0.0959,0.098,0.1027,0.1055,0.1056,0.1122,0.1128,0.1159,0.1158,0.1162,0.1205,0.1148,0.1245,0.1255,0.1265,0.1317,0.1333,0.115,0.115,0.115,0.115,0,0.0815,0.0832,0.0836,0.0859,0.0891,0.0906,0.0945,0.0988,0.1025,0.105,0.1108,0.1128,0.1177,0.1175,0.1163,0.1232,0.124,0.1249,0.1242,0.1278,0.133,0.1346,0.1152,0.1151,0.1151,0.1151,0,0,0.0779,0.081,0.0817,0.0833,0.0884,0.0909,0.0948,0.0996,0.1046,0.1078,0.1136,0.1154,0.1201,0.1206,0.1224,0.1266,0.1364,0.1278,0.1282,0.1336,0.1536,0.1375,0.1377,0.1401,0.1404,0.1406,0.1544,0,0.075,0.0763,0.0792,0.0818,0.0828,0.0901,0.0942,0.1002,0.1054,0.112,0.1153,0.1217,0.12,0.1251,0.1288,0.1362,0.1408,0.1325,0.1487,0.1491,0.1349,0.139,0.1415,0.1556,0.156,0.1563,0.1565,0,0.0699,0.0724,0.0748,0.0814,0.0832,0.0864,0.0976,0.1024,0.1119,0.1169,0.1238,0.1282,0.136,0.134,0.1479,0.1434,0.1484,0.1518,0.1525,0.1376,0.1358,0.1513,0.1594,0.1591,0.1589,0.1587,0.1586,0,0.0643,0.0686,0.0714,0.0736,0.0823,0.0871,0.0931,0.1042,0.1108,0.1228,0.1292,0.1382,0.1442,0.1535,0.1588,0.1572,0.1715,0.1718,0.1613,0.1603,0.1701,0.1689,0.1814,0.1814,0.1814,0.1813,0.1813,0,0.0583,0.0596,0.0695,0.0712,0.0767,0.0857,0.0945,0.1024,0.1155,0.1231,0.1329,0.1388,0.1495,0.1572,0.1631,0.1654,0.1772,0.1617,0.163,0.1703,0.169,0.1712,0.1698,0.1819,0.1817,0.1816,0.1815,0,0.049,0.055,0.0591,0.0704,0.0734,0.0792,0.0933,0.0988,0.1151,0.1258,0.1311,0.1425,0.153,0.1606,0.1737,0.1689,0.1755,0.173,0.1788,0.1803,0.1584,0.157,0.1662,0.1657,0.1653,0.165,0.1648,0,0.0419,0.0438,0.0577,0.0616,0.0661,0.0757,0.0799,0.0956,0.1033,0.1263,0.1289,0.1425,0.1487,0.1552,0.1626,0.1724,0.1692,0.1709,0.1641,0.1566,0.1571,0.1563,0.1554,0.1641,0.164,0.1639,0.1638,0,0.0306,0.0393,0.0461,0.0543,0.0591,0.0645,0.0738,0.0795,0.0994,0.1137,0.127,0.1343,0.141,0.1476,0.1526,0.1593,0.1699,0.1669,0.1678,0.1614,0.1542,0.1549,0.1545,0.1625,0.1627,0.1628,0.1629,0,0.0252,0.0272,0.0393,0.0461,0.0514,0.0534,0.0599,0.0706,0.0814,0.1094,0.1116,0.1277,0.139,0.1407,0.1475,0.1501,0.1491,0.1451,0.1471,0.1486,0.1354,0.1233,0.1237,0,0,0,0,0,0.0193,0.0213,0.0279,0.0366,0.0423,0.045,0.0552,0.0638,0.0826,0.0889,0.1034,0.112,0.1216,0.1276,0.1272,0.136,0.1463,0.1343,0.1418,0.1552,0.1567,0.1422,0,0,0,0,0,0,0.0159,0.0212,0.0252,0.0275,0.031,0.0339,0.0395,0.0517,0.0599,0.081,0.0869,0.103,0.1128,0.1214,0.1244,0.1264,0.1282,0.1448,0.1444,0.1543,0.1557,0.1569,0.1425,0,0,0,0,0]},{"header":{"parameterUnit":"m.s-1","parameterCategory":2,"la1":30.2991,"la2":30.254,"lo1":-89.0895,"lo2":-89.0444,"dy":0.0017,"dx":0.0017,"nx":28,"ny":28,"refTime":"2024-10-13T03:00:00:Z","depth":"4","parameterNumber":3,"parameterNumberName":"V-component_of_CURRENTS"},"data":[0,0,0,0,0,0,0,0,0,0,0,0,0,0,0,0,0,0,0,0,0,0,0,0,0,0,0,0,0,0,0,0,0,0,0,0,0,0,0,0,0,0,0,0,0,0,0,0,0,0,0,0,0,0,0,0,0,0,0.0099,0.0099,0,0.0082,0.0082,0.0082,0.0074,0.0074,0.0074,0.0074,0.0061,0.0061,0.006,0,0,0,0,0,0,0,0,0,0,0,0,0,0.0122,0.0121,0.0099,0.0099,0.0099,0.0082,0.0082,0.0082,0.0074,0.0074,0.0074,0.0074,0.0061,0.0061,0.006,0,0,0,0,0,0,0,0,0,0,0,0,0,0.0109,0.0121,0.01,0.0093,0.0093,0.0082,0.0082,0.0082,0.0074,0.0074,0.0074,0.0074,0.0061,0.0061,0.006,0.0056,0,0,0.0058,0.0058,0,0,0,0,0,0,0,0,0.0109,0.0108,0.0094,0.0094,0.0093,0.008,0.0085,0.0073,0.0074,0.008,0.0074,0.0074,0.0068,0.0067,0.0063,0.0055,0.0054,0.0058,0.0058,0.0058,0.0058,0,0,0,0,0,0,0,0.011,0.0108,0.0092,0.0094,0.0093,0.009,0.0088,0.0083,0.0074,0.008,0.0079,0.0078,0.0068,0.0064,0.0063,0.0054,0.0058,0.0058,0.0058,0.0057,0.0074,0.0075,0,0,0,0,0,0,0.0113,0.0109,0.0093,0.0092,0.0102,0.009,0.0088,0.0084,0.0074,0.0072,0.0078,0.0078,0.0065,0.0063,0.0062,0.008,0.0058,0.0057,0.0057,0.0073,0.0074,0.0075,0,0,0,0,0,0,0.0114,0.0112,0.0094,0.0101,0.0098,0.0089,0.0085,0.0084,0.0082,0.0072,0.0071,0.0078,0.0065,0.0063,0.0065,0.0078,0.0057,0.0057,0.0073,0.0074,0.0075,0.0099,0,0,0,0,0,0,0.0114,0.0112,0.011,0.0101,0.0098,0.0094,0.0085,0.0083,0.0081,0.0081,0.0072,0.0071,0.0064,0.0066,0.0065,0.0077,0.0056,0.0072,0.0073,0.0074,0.0098,0.0101,0.0104,0,0,0,0,0,0.0115,0.0111,0.011,0.0108,0.0095,0.0094,0.0093,0.0086,0.0081,0.0084,0.008,0.0071,0.0075,0.0066,0.0064,0.0077,0.0071,0.0073,0.0074,0.0096,0.01,0.0104,0,0,0,0,0,0,0.0111,0.0109,0.0108,0.0101,0.0102,0.0093,0.0091,0.0088,0.0086,0.0086,0.0076,0.0075,0.0081,0.0077,0.0068,0.0088,0.0074,0.0075,0.0091,0.0095,0.0098,0.0098,0.0056,0,0,0,0,0,0.0111,0.0113,0.0109,0.0105,0.0105,0.0099,0.0097,0.0096,0.0093,0.0091,0.0088,0.0087,0.0087,0.0089,0.0087,0.0095,0.0067,0.0105,0.0108,0.0111,0.0111,0.0074,0.0073,0.0081,0.0081,0.0081,0,0,0.0108,0.0108,0.0108,0.0105,0.0103,0.0113,0.0098,0.0099,0.0112,0.0091,0.0105,0.0094,0.009,0.01,0.0104,0.01,0.0095,0.0113,0.0115,0.0113,0.0075,0.0074,0.0073,0.0082,0.0082,0.0082,0,0,0.0116,0.0103,0.0115,0.0118,0.0122,0.0119,0.0122,0.012,0.0124,0.0136,0.0124,0.0119,0.0127,0.0122,0.0122,0.0143,0.011,0.0149,0.0168,0.0133,0.0131,0.013,0.0091,0.0086,0.0155,0.0155,0.0155,0,0.0112,0.013,0.0118,0.0133,0.014,0.0125,0.0145,0.0145,0.0148,0.0148,0.0148,0.0142,0.0138,0.0139,0.0152,0.0149,0.0121,0.0151,0.0135,0.0133,0.0131,0.0092,0.0086,0.0156,0.0156,0.0156,0.0156,0,0.014,0.0152,0.0156,0.0175,0.0177,0.0189,0.019,0.0194,0.0196,0.0191,0.0192,0.0181,0.0176,0.0178,0.0174,0.0163,0.0146,0.0137,0.012,0.0131,0.009,0.0083,0.0158,0.0158,0.0157,0.0157,0,0,0.0147,0.0173,0.0177,0.0199,0.0203,0.0212,0.0225,0.0233,0.0241,0.0235,0.0237,0.0236,0.0214,0.0213,0.02,0.0176,0.0139,0.0157,0.0154,0.0111,0.0053,0.005,0.0041,0.0124,0.0123,0.0122,0.0029,0,0.0179,0.022,0.0222,0.0262,0.0285,0.0273,0.0291,0.029,0.0283,0.0279,0.025,0.0252,0.0233,0.0236,0.0203,0.0155,0.0122,0.0164,0.0056,0.0053,0.0042,0.0034,0.0119,0.0024,0.0022,0.0021,0.002,0,0.022,0.0243,0.0291,0.032,0.0328,0.0347,0.0362,0.0377,0.0353,0.0343,0.0314,0.0287,0.0252,0.0239,0.0145,0.0172,0.0117,0.0075,0.007,0.0053,0.0037,0.0012,0.0007,0.0008,0.0009,0.001,0.0011,0,0.0258,0.0294,0.0337,0.0349,0.0376,0.0396,0.0407,0.0398,0.0421,0.0383,0.0382,0.0314,0.0296,0.0213,0.0129,0.0136,0.0014,0.0011,-0.005,-0.0052,-0.0033,-0.003,-0.0062,-0.0062,-0.0062,-0.0061,-0.0061,0,0.0307,0.0342,0.0363,0.0393,0.0444,0.0443,0.0497,0.0481,0.048,0.0497,0.0425,0.0414,0.0289,0.0209,0.0123,0.0011,0.0005,-0.0054,-0.0077,-0.0019,-0.0014,-0.0039,-0.0035,-0.0065,-0.0064,-0.0063,-0.0063,0,0.0363,0.0374,0.0425,0.0456,0.0473,0.0512,0.057,0.0593,0.0583,0.0599,0.0592,0.0486,0.0372,0.0243,0.0095,0.0016,-0.0093,-0.0131,-0.0068,-0.0085,-0.0136,-0.0129,-0.0211,-0.0211,-0.0212,-0.0213,-0.0213,0,0.0392,0.043,0.0479,0.0509,0.0534,0.0598,0.0634,0.0644,0.0672,0.0647,0.0646,0.0538,0.0457,0.0234,0.0089,-0.0099,-0.0117,-0.0186,-0.0154,-0.0138,-0.0152,-0.0144,-0.0137,-0.0215,-0.0215,-0.0215,-0.0215,0,0.045,0.0471,0.0511,0.0571,0.0614,0.0683,0.0737,0.0767,0.0773,0.0765,0.0695,0.057,0.0425,0.0238,0.0082,-0.0046,-0.0149,-0.0194,-0.0193,-0.0164,-0.0144,-0.0155,-0.0147,-0.0218,-0.0218,-0.0217,-0.0217,0,0.0484,0.0519,0.0564,0.0619,0.067,0.0727,0.077,0.0792,0.0816,0.0783,0.0754,0.059,0.0488,0.0265,0.0128,-0.001,-0.0036,-0.0076,-0.0082,-0.0081,-0.0013,0.0033,-0.0011,0,0,0,0,0,0.0502,0.0541,0.0601,0.065,0.07,0.0737,0.0806,0.0841,0.0852,0.081,0.0791,0.0659,0.0426,0.0313,0.0178,0.0117,-0.006,-0.0048,-0.0108,-0.0233,-0.023,-0.0173,0,0,0,0,0,0,0.0513,0.057,0.0602,0.0658,0.0697,0.0758,0.0803,0.0821,0.0814,0.0799,0.0679,0.0618,0.0395,0.0501,0.0169,0.0125,0.0067,-0.0155,-0.0158,-0.0235,-0.0232,-0.0229,-0.017,0,0,0,0,0]}]]